Location: Davidschlag
(48.4333°N, 14.2833°E)
Time: 18:16:30
(UTC+00:00)

STARLINK-1022 - Pass Details

Date: 27 February 2020
Orbit: 548 x 551 km, 53.0° (Epoch: 01 April)

Event Time Altitude Azimuth Distance (km) Brightness Sun altitude
Rises 17:16:00 0° 215° (SW) 2,704 7.8 -6.3°
Reaches altitude 10° 17:18:20 10° 207° (SSW) 1,814 6.7 -6.7°
Maximum altitude 17:22:06 35° 141° (SE) 889 4.4 -7.3°
Drops below altitude 10° 17:25:54 10° 74° (ENE) 1,824 5.6 -7.9°
Enters shadow 17:25:58 10° 74° (ENE) 1,848 5.7 -7.9°
